Location: Linz
(48.3300°N, 14.3000°E)
Time: 11:49:49
(UTC+02:00)

YUBILEINY - Pass Details

Date: 20 February 2019
Orbit: 1478 x 1508 km, 82.5° (Epoch: 23 October)

Event Time Altitude Azimuth Distance (km) Brightness Sun altitude
Rises 03:17:24 0° 141° (SE) 4,588 ? -37.1°
Reaches altitude 10° 03:20:51 10° 130° (SE) 3,613 ? -36.6°
Maximum altitude 03:27:32 26° 78° (ENE) 2,595 ? -35.6°
Drops below altitude 10° 03:34:14 10° 28° (NNE) 3,635 ? -34.6°
Sets 03:37:41 0° 16° (NNE) 4,623 ? -34.1°
